Time,TemperatureF,DewpointF,PressureIn,WindDirection,WindDirectionDegrees,WindSpeedMPH,WindSpeedGustMPH,Humidity,HourlyPrecipIn,Conditions,Clouds,dailyrainin,SoftwareType,DateUTC
2013-03-29 00:03:00,41.0,35.0,30.28,NNW,334,0.0,-999.0,79,-99.99,,,0.00,,2013-03-29 05:03:00,
2013-03-29 00:12:00,41.0,35.0,30.28,NNW,334,0.0,-999.0,79,-99.99,,,0.00,,2013-03-29 05:12:00,
2013-03-29 00:23:00,41.0,35.0,30.28,NNW,334,0.0,-999.0,80,-99.99,,,0.00,,2013-03-29 05:23:00,
2013-03-29 00:33:00,41.0,36.0,30.28,NNW,334,0.0,-999.0,81,-99.99,,,0.00,,2013-03-29 05:33:00,
2013-03-29 00:43:00,41.0,36.0,30.28,NNW,334,0.0,-999.0,81,-99.99,,,0.00,,2013-03-29 05:43:00,
2013-03-29 00:52:00,41.0,36.0,30.28,NNW,334,0.0,-999.0,81,-99.99,,,0.00,,2013-03-29 05:52:00,
2013-03-29 01:02:00,41.0,36.0,30.28,NNW,334,0.0,-999.0,81,-99.99,,,0.00,,2013-03-29 06:02:00,
2013-03-29 01:12:00,41.0,36.0,30.28,NNW,334,0.0,-999.0,81,-99.99,,,0.00,,2013-03-29 06:12:00,
2013-03-29 01:23:00,41.0,36.0,30.27,NNW,334,1.0,-999.0,82,-99.99,,,0.00,,2013-03-29 06:23:00,
2013-03-29 01:32:00,41.0,36.0,30.27,NNW,334,0.0,-999.0,82,-99.99,,,0.00,,2013-03-29 06:32:00,
2013-03-29 01:42:00,41.0,36.0,30.27,NNW,334,0.0,-999.0,82,-99.99,,,0.00,,2013-03-29 06:42:00,
2013-03-29 01:52:00,40.0,35.0,30.28,North,354,2.0,-999.0,83,-99.99,,,0.00,,2013-03-29 06:52:00,
2013-03-29 02:03:00,40.0,35.0,30.28,North,354,0.0,-999.0,83,-99.99,,,0.00,,2013-03-29 07:03:00,
2013-03-29 02:12:00,40.0,35.0,30.28,North,354,0.0,-999.0,83,-99.99,,,0.00,,2013-03-29 07:12:00,
2013-03-29 02:22:00,40.0,36.0,30.28,North,354,0.0,-999.0,84,-99.99,,,0.00,,2013-03-29 07:22:00,
2013-03-29 02:32:00,40.0,36.0,30.28,North,354,0.0,-999.0,85,-99.99,,,0.00,,2013-03-29 07:32:00,
2013-03-29 02:42:00,40.0,36.0,30.28,North,354,0.0,-999.0,85,-99.99,,,0.00,,2013-03-29 07:42:00,
2013-03-29 02:52:00,40.0,36.0,30.28,North,354,0.0,-999.0,84,-99.99,,,0.00,,2013-03-29 07:52:00,
2013-03-29 03:02:00,40.0,36.0,30.27,North,354,0.0,-999.0,85,-99.99,,,0.00,,2013-03-29 08:02:00,
2013-03-29 03:12:00,40.0,36.0,30.27,North,354,0.0,-999.0,85,-99.99,,,0.00,,2013-03-29 08:12:00,
2013-03-29 03:22:00,39.0,35.0,30.27,North,354,0.0,-999.0,85,-99.99,,,0.00,,2013-03-29 08:22:00,
2013-03-29 03:32:00,39.0,35.0,30.26,North,354,1.0,-999.0,85,-99.99,,,0.00,,2013-03-29 08:32:00,
2013-03-29 03:42:00,39.0,35.0,30.26,North,354,1.0,-999.0,85,-99.99,,,0.00,,2013-03-29 08:42:00,
2013-03-29 03:52:00,39.0,35.0,30.25,North,354,0.0,-999.0,87,-99.99,,,0.00,,2013-03-29 08:52:00,
2013-03-29 04:02:00,39.0,36.0,30.25,North,354,0.0,-999.0,88,-99.99,,,0.00,,2013-03-29 09:02:00,
2013-03-29 04:13:00,39.0,36.0,30.25,North,354,0.0,-999.0,88,-99.99,,,0.00,,2013-03-29 09:13:00,
2013-03-29 04:22:00,40.0,36.0,30.25,North,354,0.0,-999.0,87,-99.99,,,0.00,,2013-03-29 09:22:00,
2013-03-29 04:32:00,40.0,36.0,30.25,North,354,0.0,-999.0,86,-99.99,,,0.00,,2013-03-29 09:32:00,
2013-03-29 04:42:00,40.0,36.0,30.25,North,354,0.0,-999.0,86,-99.99,,,0.00,,2013-03-29 09:42:00,
2013-03-29 04:52:00,40.0,36.0,30.24,North,354,0.0,-999.0,86,-99.99,,,0.00,,2013-03-29 09:52:00,
2013-03-29 05:02:00,40.0,36.0,30.24,North,354,0.0,-999.0,86,-99.99,,,0.00,,2013-03-29 10:02:00,
2013-03-29 05:12:00,40.0,36.0,30.24,North,354,0.0,-999.0,86,-99.99,,,0.00,,2013-03-29 10:12:00,
2013-03-29 05:22:00,40.0,36.0,30.25,North,354,0.0,-999.0,84,-99.99,,,0.00,,2013-03-29 10:22:00,
2013-03-29 05:33:00,41.0,36.0,30.25,North,354,0.0,-999.0,83,-99.99,,,0.00,,2013-03-29 10:33:00,
2013-03-29 05:42:00,41.0,36.0,30.25,North,354,0.0,-999.0,83,-99.99,,,0.00,,2013-03-29 10:42:00,
2013-03-29 05:52:00,41.0,36.0,30.26,North,354,0.0,-999.0,82,-99.99,,,0.00,,2013-03-29 10:52:00,
2013-03-29 06:03:00,41.0,36.0,30.26,North,354,0.0,-999.0,81,-99.99,,,0.00,,2013-03-29 11:03:00,
2013-03-29 06:12:00,41.0,36.0,30.26,North,354,0.0,-999.0,81,-99.99,,,0.00,,2013-03-29 11:12:00,
2013-03-29 06:23:00,42.0,36.0,30.26,North,354,0.0,-999.0,79,-99.99,,,0.00,,2013-03-29 11:23:00,
2013-03-29 06:32:00,42.0,36.0,30.26,North,354,1.0,-999.0,78,-99.99,,,0.00,,2013-03-29 11:32:00,
2013-03-29 06:42:00,42.0,36.0,30.26,North,354,1.0,-999.0,78,-99.99,,,0.00,,2013-03-29 11:42:00,
2013-03-29 06:52:00,43.0,36.0,30.26,North,10,1.0,-999.0,76,-99.99,,,0.00,,2013-03-29 11:52:00,
2013-03-29 07:02:00,44.0,37.0,30.27,NNE,25,1.0,-999.0,75,-99.99,,,0.00,,2013-03-29 12:02:00,
2013-03-29 07:12:00,44.0,37.0,30.27,NNE,25,1.0,-999.0,75,-99.99,,,0.00,,2013-03-29 12:12:00,
2013-03-29 07:22:00,44.0,37.0,30.27,NNE,25,1.0,-999.0,75,-99.99,,,0.00,,2013-03-29 12:22:00,
2013-03-29 07:32:00,46.0,37.0,30.28,SE,133,2.0,-999.0,71,-99.99,,,0.00,,2013-03-29 12:32:00,
2013-03-29 07:42:00,46.0,37.0,30.28,SE,133,2.0,-999.0,71,-99.99,,,0.00,,2013-03-29 12:42:00,
2013-03-29 07:53:00,47.0,37.0,30.28,SE,128,3.0,-999.0,69,-99.99,,,0.00,,2013-03-29 12:53:00,
2013-03-29 08:03:00,48.0,37.0,30.28,SE,125,4.0,-999.0,65,-99.99,,,0.00,,2013-03-29 13:03:00,
2013-03-29 08:12:00,48.0,37.0,30.28,SE,125,4.0,-999.0,65,-99.99,,,0.00,,2013-03-29 13:12:00,
2013-03-29 08:22:00,49.0,37.0,30.28,SE,145,4.0,-999.0,64,-99.99,,,0.00,,2013-03-29 13:22:00,
2013-03-29 08:32:00,50.0,37.0,30.28,SSE,152,6.0,-999.0,61,-99.99,,,0.00,,2013-03-29 13:32:00,
2013-03-29 08:42:00,50.0,37.0,30.28,SSE,152,6.0,-999.0,61,-99.99,,,0.00,,2013-03-29 13:42:00,
2013-03-29 08:53:00,50.0,37.0,30.28,SE,146,6.0,-999.0,61,-99.99,,,0.00,,2013-03-29 13:53:00,
2013-03-29 09:02:00,50.0,37.0,30.28,SE,146,6.0,-999.0,60,-99.99,,,0.00,,2013-03-29 14:02:00,
2013-03-29 09:12:00,50.0,37.0,30.28,SE,146,6.0,-999.0,60,-99.99,,,0.00,,2013-03-29 14:12:00,
2013-03-29 09:22:00,51.0,38.0,30.29,South,170,6.0,-999.0,60,-99.99,,,0.00,,2013-03-29 14:22:00,
2013-03-29 09:32:00,51.0,37.0,30.29,SSE,166,5.0,-999.0,58,-99.99,,,0.00,,2013-03-29 14:32:00,
2013-03-29 09:42:00,51.0,37.0,30.29,SSE,166,5.0,-999.0,58,-99.99,,,0.00,,2013-03-29 14:42:00,
2013-03-29 09:53:00,52.0,38.0,30.29,SSE,160,5.0,-999.0,58,-99.99,,,0.00,,2013-03-29 14:53:00,
2013-03-29 10:02:00,53.0,39.0,30.29,SSE,159,4.0,-999.0,58,-99.99,,,0.00,,2013-03-29 15:02:00,
2013-03-29 10:12:00,53.0,39.0,30.29,SSE,159,4.0,-999.0,58,-99.99,,,0.00,,2013-03-29 15:12:00,
2013-03-29 10:22:00,54.0,39.0,30.29,SE,125,4.0,-999.0,57,-99.99,,,0.00,,2013-03-29 15:22:00,
2013-03-29 10:33:00,56.0,40.0,30.28,SE,141,4.0,-999.0,54,-99.99,,,0.00,,2013-03-29 15:33:00,
2013-03-29 10:43:00,56.0,40.0,30.28,SE,141,4.0,-999.0,54,-99.99,,,0.00,,2013-03-29 15:43:00,
2013-03-29 10:53:00,58.0,39.0,30.28,SSE,150,4.0,-999.0,50,-99.99,,,0.00,,2013-03-29 15:53:00,
2013-03-29 11:03:00,59.0,38.0,30.27,SSW,192,5.0,-999.0,46,-99.99,,,0.00,,2013-03-29 16:03:00,
2013-03-29 11:13:00,59.0,38.0,30.27,SSW,192,5.0,-999.0,46,-99.99,,,0.00,,2013-03-29 16:13:00,
2013-03-29 11:23:00,60.0,39.0,30.27,SW,228,5.0,-999.0,45,-99.99,,,0.00,,2013-03-29 16:23:00,
2013-03-29 11:32:00,61.0,38.0,30.27,SE,146,4.0,-999.0,43,-99.99,,,0.00,,2013-03-29 16:32:00,
2013-03-29 11:42:00,61.0,38.0,30.27,SE,146,4.0,-999.0,43,-99.99,,,0.00,,2013-03-29 16:42:00,
2013-03-29 11:53:00,62.0,38.0,30.26,South,172,4.0,-999.0,41,-99.99,,,0.00,,2013-03-29 16:53:00,
2013-03-29 12:03:00,64.0,37.0,30.26,SW,236,5.0,-999.0,37,-99.99,,,0.00,,2013-03-29 17:03:00,
2013-03-29 12:12:00,64.0,37.0,30.26,SW,236,5.0,-999.0,37,-99.99,,,0.00,,2013-03-29 17:12:00,
2013-03-29 12:22:00,63.0,36.0,30.25,SW,230,5.0,-999.0,37,-99.99,,,0.00,,2013-03-29 17:22:00,
2013-03-29 12:33:00,63.0,36.0,30.24,WSW,246,8.0,-999.0,36,-99.99,,,0.00,,2013-03-29 17:33:00,
2013-03-29 12:42:00,63.0,36.0,30.24,WSW,246,8.0,-999.0,36,-99.99,,,0.00,,2013-03-29 17:42:00,
2013-03-29 12:53:00,63.0,36.0,30.24,SW,235,7.0,-999.0,37,-99.99,,,0.00,,2013-03-29 17:53:00,
2013-03-29 13:02:00,65.0,37.0,30.22,SSW,193,5.0,-999.0,36,-99.99,,,0.00,,2013-03-29 18:02:00,
2013-03-29 13:12:00,65.0,37.0,30.22,SSW,193,5.0,-999.0,36,-99.99,,,0.00,,2013-03-29 18:12:00,
2013-03-29 13:22:00,64.0,36.0,30.22,SW,218,7.0,-999.0,35,-99.99,,,0.00,,2013-03-29 18:22:00,
2013-03-29 13:32:00,64.0,37.0,30.20,SSW,194,6.0,-999.0,37,-99.99,,,0.00,,2013-03-29 18:32:00,
2013-03-29 13:42:00,64.0,37.0,30.20,SSW,194,6.0,-999.0,37,-99.99,,,0.00,,2013-03-29 18:42:00,
2013-03-29 13:52:00,66.0,39.0,30.19,South,186,4.0,-999.0,37,-99.99,,,0.00,,2013-03-29 18:52:00,
2013-03-29 14:02:00,65.0,37.0,30.19,West,261,4.0,-999.0,36,-99.99,,,0.00,,2013-03-29 19:02:00,
2013-03-29 14:12:00,65.0,38.0,30.18,SW,222,4.0,-999.0,37,-99.99,,,0.00,,2013-03-29 19:12:00,
2013-03-29 14:23:00,65.0,38.0,30.18,SW,222,4.0,-999.0,37,-99.99,,,0.00,,2013-03-29 19:23:00,
2013-03-29 14:32:00,65.0,38.0,30.18,SSW,210,4.0,-999.0,37,-99.99,,,0.00,,2013-03-29 19:32:00,
2013-03-29 14:42:00,65.0,38.0,30.18,SSW,210,4.0,-999.0,37,-99.99,,,0.00,,2013-03-29 19:42:00,
2013-03-29 14:52:00,66.0,40.0,30.17,South,189,4.0,-999.0,38,-99.99,,,0.00,,2013-03-29 19:52:00,
2013-03-29 15:02:00,66.0,38.0,30.16,SSE,147,3.0,-999.0,36,-99.99,,,0.00,,2013-03-29 20:02:00,
2013-03-29 15:12:00,66.0,38.0,30.16,SSE,147,3.0,-999.0,36,-99.99,,,0.00,,2013-03-29 20:12:00,
2013-03-29 15:22:00,66.0,38.0,30.15,South,182,3.0,-999.0,36,-99.99,,,0.00,,2013-03-29 20:22:00,
2013-03-29 15:33:00,67.0,38.0,30.14,SSW,196,2.0,-999.0,34,-99.99,,,0.00,,2013-03-29 20:33:00,
2013-03-29 15:42:00,67.0,38.0,30.14,SSW,196,2.0,-999.0,34,-99.99,,,0.00,,2013-03-29 20:42:00,
2013-03-29 15:52:00,68.0,40.0,30.14,South,181,3.0,-999.0,36,-99.99,,,0.00,,2013-03-29 20:52:00,
2013-03-29 16:02:00,68.0,39.0,30.13,WSW,256,6.0,-999.0,35,-99.99,,,0.00,,2013-03-29 21:02:00,
2013-03-29 16:12:00,68.0,39.0,30.13,WSW,256,6.0,-999.0,35,-99.99,,,0.00,,2013-03-29 21:12:00,
2013-03-29 16:22:00,68.0,39.0,30.13,SW,220,6.0,-999.0,35,-99.99,,,0.00,,2013-03-29 21:22:00,
2013-03-29 16:33:00,68.0,39.0,30.13,WSW,246,7.0,-999.0,35,-99.99,,,0.00,,2013-03-29 21:33:00,
2013-03-29 16:42:00,68.0,39.0,30.13,WSW,246,7.0,-999.0,35,-99.99,,,0.00,,2013-03-29 21:42:00,
2013-03-29 16:53:00,68.0,41.0,30.12,South,178,5.0,-999.0,37,-99.99,,,0.00,,2013-03-29 21:53:00,
2013-03-29 17:03:00,67.0,40.0,30.11,South,187,4.0,-999.0,37,-99.99,,,0.00,,2013-03-29 22:03:00,
2013-03-29 17:12:00,67.0,40.0,30.11,South,187,4.0,-999.0,37,-99.99,,,0.00,,2013-03-29 22:12:00,
2013-03-29 17:22:00,67.0,40.0,30.11,SSW,213,4.0,-999.0,37,-99.99,,,0.00,,2013-03-29 22:22:00,
2013-03-29 17:33:00,67.0,41.0,30.11,WNW,291,4.0,-999.0,38,-99.99,,,0.00,,2013-03-29 22:33:00,
2013-03-29 17:42:00,67.0,41.0,30.11,WNW,291,4.0,-999.0,38,-99.99,,,0.00,,2013-03-29 22:42:00,
2013-03-29 17:53:00,63.0,42.0,30.12,NW,322,7.0,-999.0,46,-99.99,,,0.00,,2013-03-29 22:53:00,
2013-03-29 18:02:00,62.0,41.0,30.12,North,354,8.0,-999.0,46,-99.99,,,0.00,,2013-03-29 23:02:00,
2013-03-29 18:12:00,62.0,41.0,30.12,North,354,8.0,-999.0,46,-99.99,,,0.00,,2013-03-29 23:12:00,
2013-03-29 18:22:00,60.0,40.0,30.13,North,4,8.0,-999.0,48,-99.99,,,0.00,,2013-03-29 23:22:00,
2013-03-29 18:32:00,59.0,40.0,30.14,NNE,22,8.0,-999.0,49,-99.99,,,0.00,,2013-03-29 23:32:00,
2013-03-29 18:42:00,59.0,40.0,30.14,NNE,22,8.0,-999.0,49,-99.99,,,0.00,,2013-03-29 23:42:00,
2013-03-29 18:52:00,59.0,40.0,30.14,North,4,7.0,-999.0,50,-99.99,,,0.00,,2013-03-29 23:52:00,
2013-03-29 19:03:00,58.0,39.0,30.15,North,8,6.0,-999.0,50,-99.99,,,0.00,,2013-03-30 00:03:00,
2013-03-29 19:12:00,58.0,39.0,30.15,North,8,6.0,-999.0,50,-99.99,,,0.00,,2013-03-30 00:12:00,
2013-03-29 19:22:00,58.0,39.0,30.15,North,349,5.0,-999.0,50,-99.99,,,0.00,,2013-03-30 00:22:00,
2013-03-29 19:32:00,58.0,39.0,30.15,NNW,347,5.0,-999.0,50,-99.99,,,0.00,,2013-03-30 00:32:00,
2013-03-29 19:42:00,58.0,39.0,30.15,NNW,347,5.0,-999.0,50,-99.99,,,0.00,,2013-03-30 00:42:00,
2013-03-29 19:53:00,58.0,40.0,30.16,North,8,3.0,-999.0,51,-99.99,,,0.00,,2013-03-30 00:53:00,
2013-03-29 20:02:00,57.0,40.0,30.16,NNE,14,3.0,-999.0,52,-99.99,,,0.00,,2013-03-30 01:02:00,
2013-03-29 20:12:00,57.0,40.0,30.16,NNE,14,3.0,-999.0,52,-99.99,,,0.00,,2013-03-30 01:12:00,
2013-03-29 20:22:00,57.0,39.0,30.16,NNE,27,2.0,-999.0,51,-99.99,,,0.00,,2013-03-30 01:22:00,
2013-03-29 20:32:00,57.0,41.0,30.16,NNE,27,1.0,-999.0,55,-99.99,,,0.00,,2013-03-30 01:32:00,
2013-03-29 20:42:00,57.0,41.0,30.16,NNE,27,1.0,-999.0,55,-99.99,,,0.00,,2013-03-30 01:42:00,
2013-03-29 20:53:00,56.0,40.0,30.16,NNE,27,1.0,-999.0,55,-99.99,,,0.00,,2013-03-30 01:53:00,
2013-03-29 21:02:00,56.0,40.0,30.16,NNE,27,1.0,-999.0,55,-99.99,,,0.00,,2013-03-30 02:02:00,
2013-03-29 21:12:00,56.0,40.0,30.16,NNE,27,1.0,-999.0,55,-99.99,,,0.00,,2013-03-30 02:12:00,
2013-03-29 21:22:00,56.0,40.0,30.16,NNE,27,1.0,-999.0,54,-99.99,,,0.00,,2013-03-30 02:22:00,
2013-03-29 21:32:00,56.0,42.0,30.16,NNE,27,0.0,-999.0,59,-99.99,,,0.00,,2013-03-30 02:32:00,
2013-03-29 21:43:00,56.0,42.0,30.16,NNE,27,0.0,-999.0,59,-99.99,,,0.00,,2013-03-30 02:43:00,
2013-03-29 21:53:00,55.0,41.0,30.17,NNE,27,0.0,-999.0,59,-99.99,,,0.00,,2013-03-30 02:53:00,
2013-03-29 22:02:00,55.0,41.0,30.17,NNE,27,0.0,-999.0,60,-99.99,,,0.00,,2013-03-30 03:02:00,
2013-03-29 22:12:00,54.0,41.0,30.17,NNE,27,0.0,-999.0,62,-99.99,,,0.00,,2013-03-30 03:12:00,
2013-03-29 22:22:00,54.0,41.0,30.17,NNE,27,0.0,-999.0,62,-99.99,,,0.00,,2013-03-30 03:22:00,
2013-03-29 22:33:00,54.0,42.0,30.17,NNE,27,0.0,-999.0,64,-99.99,,,0.00,,2013-03-30 03:33:00,
2013-03-29 22:43:00,54.0,42.0,30.17,NNE,27,0.0,-999.0,64,-99.99,,,0.00,,2013-03-30 03:43:00,
2013-03-29 22:53:00,54.0,42.0,30.17,NNE,27,0.0,-999.0,64,-99.99,,,0.00,,2013-03-30 03:53:00,
2013-03-29 23:02:00,54.0,42.0,30.17,NNE,27,0.0,-999.0,64,-99.99,,,0.00,,2013-03-30 04:02:00,
2013-03-29 23:12:00,54.0,42.0,30.17,NNE,27,0.0,-999.0,64,-99.99,,,0.00,,2013-03-30 04:12:00,
2013-03-29 23:23:00,53.0,43.0,30.17,NNE,27,0.0,-999.0,68,-99.99,,,0.00,,2013-03-30 04:23:00,
2013-03-29 23:32:00,54.0,43.0,30.16,NNE,27,1.0,-999.0,66,-99.99,,,0.00,,2013-03-30 04:32:00,
2013-03-29 23:42:00,54.0,43.0,30.16,NNE,27,1.0,-999.0,66,-99.99,,,0.00,,2013-03-30 04:42:00,
2013-03-29 23:53:00,54.0,43.0,30.16,NNE,27,1.0,-999.0,66,-99.99,,,0.00,,2013-03-30 04:53:00,